When you browse on this site, cookies collect data to enhance your experience and personalize the content and advertising you see.
Visit our Privacy Policy to learn more. By continuing to use the site, you agree to this use of cookies and data.
  • In Austria
  • List of Countries
  • For 7 days
  • Water Temperature
  • Satellite Maps
  • Weather Map
  • News
  • Weather Widgets
  • user-avatar
    Login

    Hourly Weather Konstantyna

    Today, 19 January, Saturday

    Time Temperature Precipitation Wind Pressure Humidity
    00:00 +6°C° 0 mm 1 mps 708 mmHg 92%
    01:00 +6°C° 0 mm 1 mps 708 mmHg 92%
    02:00 +6°C° 0 mm 1 mps 708 mmHg 91%
    03:00 +6°C° 0 mm 1 mps 707 mmHg 90%
    04:00 +5°C° 0 mm 1 mps 707 mmHg 89%
    05:00 +5°C° 0 mm 1 mps 707 mmHg 88%
    06:00 +5°C° 0 mm 1 mps 707 mmHg 88%
    07:00 +7°C° 0 mm 1 mps 707 mmHg 81%
    08:00 +8°C° 0 mm 1 mps 708 mmHg 75%
    09:00 +9°C° 0 mm 1 mps 708 mmHg 69%
    10:00 +9°C° 0 mm 2 mps 708 mmHg 65%
    11:00 +10°C° 0 mm 2 mps 708 mmHg 61%
    12:00 +12°C° 0 mm 2 mps 708 mmHg 57%
    13:00 +12°C° 0.3 mm 2 mps 708 mmHg 60%
    14:00 +10°C° 0.3 mm 2 mps 707 mmHg 62%
    15:00 +10°C° 0.3 mm 3 mps 707 mmHg 65%
    16:00 +9°C° 0.2 mm 2 mps 707 mmHg 74%
    17:00 +8°C° 0.2 mm 1 mps 707 mmHg 83%
    18:00 +7°C° 0.2 mm 1 mps 707 mmHg 91%
    19:00 +6°C° 0 mm 1 mps 707 mmHg 92%
    20:00 +6°C° 0 mm 1 mps 707 mmHg 93%
    21:00 +4°C° 0 mm 0 mps 707 mmHg 94%
    22:00 +5°C° 0 mm 1 mps 707 mmHg 93%
    23:00 +5°C° 0 mm 1 mps 707 mmHg 92%

    Tomorrow, 20 January, Sunday

    Time Temperature Precipitation Wind Pressure Humidity
    00:00 +5°C° 0 mm 1 mps 707 mmHg 92%
    01:00 +5°C° 0 mm 1 mps 707 mmHg 91%
    02:00 +5°C° 0 mm 1 mps 707 mmHg 90%
    03:00 +5°C° 0 mm 1 mps 706 mmHg 90%
    04:00 +5°C° 0 mm 1 mps 706 mmHg 89%
    05:00 +4°C° 0 mm 1 mps 706 mmHg 89%
    06:00 +3°C° 0 mm 2 mps 706 mmHg 89%
    07:00 +5°C° 0 mm 2 mps 706 mmHg 83%
    08:00 +6°C° 0 mm 2 mps 706 mmHg 78%
    09:00 +8°C° 0 mm 2 mps 707 mmHg 72%
    10:00 +9°C° 0 mm 3 mps 706 mmHg 65%
    11:00 +10°C° 0 mm 3 mps 706 mmHg 57%
    12:00 +12°C° 0 mm 4 mps 706 mmHg 50%
    13:00 +11°C° 0.9 mm 3 mps 705 mmHg 59%
    14:00 +9°C° 0.9 mm 2 mps 704 mmHg 69%
    15:00 +9°C° 0.9 mm 1 mps 704 mmHg 78%
    16:00 +9°C° 0.6 mm 1 mps 704 mmHg 81%
    17:00 +9°C° 0.6 mm 1 mps 704 mmHg 84%
    18:00 +7°C° 0.6 mm 2 mps 704 mmHg 87%
    19:00 +7°C° 0.8 mm 2 mps 704 mmHg 88%
    20:00 +7°C° 0.8 mm 2 mps 704 mmHg 90%
    21:00 +7°C° 0.8 mm 2 mps 704 mmHg 91%
    22:00 +7°C° 0.4 mm 2 mps 704 mmHg 90%
    23:00 +6°C° 0.4 mm 2 mps 704 mmHg 90%

    Day after tomorrow, 21 January, Monday

    Time Temperature Precipitation Wind Pressure Humidity
    00:00 +6°C° 0.4 mm 2 mps 703 mmHg 89%
    01:00 +6°C° 0 mm 2 mps 703 mmHg 89%
    02:00 +6°C° 0 mm 2 mps 703 mmHg 90%
    03:00 +5°C° 0 mm 2 mps 703 mmHg 90%
    04:00 +5°C° 0 mm 2 mps 703 mmHg 90%
    05:00 +5°C° 0 mm 2 mps 703 mmHg 90%
    06:00 +5°C° 0 mm 2 mps 703 mmHg 91%
    07:00 +6°C° 0 mm 2 mps 703 mmHg 87%
    08:00 +7°C° 0 mm 3 mps 704 mmHg 82%
    09:00 +8°C° 0 mm 3 mps 704 mmHg 78%
    10:00 +8°C° 0.7 mm 3 mps 705 mmHg 82%
    11:00 +7°C° 0.7 mm 4 mps 705 mmHg 86%
    12:00 +7°C° 0.7 mm 5 mps 705 mmHg 90%
    13:00 +6°C° 0.9 mm 5 mps 705 mmHg 90%
    14:00 +6°C° 0.9 mm 4 mps 705 mmHg 89%
    15:00 +5°C° 0.9 mm 4 mps 706 mmHg 88%
    16:00 +5°C° 0.2 mm 3 mps 706 mmHg 89%
    17:00 +5°C° 0.2 mm 3 mps 707 mmHg 91%
    18:00 +6°C° 0.2 mm 2 mps 707 mmHg 92%
    19:00 +6°C° 0.1 mm 2 mps 708 mmHg 92%
    20:00 +6°C° 0.1 mm 2 mps 708 mmHg 92%
    21:00 +6°C° 0.1 mm 1 mps 709 mmHg 92%
    22:00 +6°C° 0 mm 1 mps 708 mmHg 93%
    23:00 +5°C° 0 mm 1 mps 708 mmHg 93%

    22 January, Tuesday

    Time Temperature Precipitation Wind Pressure Humidity
    00:00 +5°C° 0 mm 1 mps 708 mmHg 94%
    01:00 +4°C° 0 mm 1 mps 708 mmHg 94%
    02:00 +4°C° 0 mm 1 mps 708 mmHg 94%
    03:00 +4°C° 0 mm 1 mps 708 mmHg 94%
    04:00 +3°C° 0 mm 1 mps 708 mmHg 94%
    05:00 +3°C° 0 mm 1 mps 708 mmHg 94%
    06:00 +3°C° 0 mm 1 mps 708 mmHg 94%
    07:00 +4°C° 0 mm 2 mps 708 mmHg 90%
    08:00 +5°C° 0 mm 2 mps 709 mmHg 86%
    09:00 +6°C° 0 mm 2 mps 709 mmHg 82%
    10:00 +7°C° 0 mm 2 mps 709 mmHg 78%
    11:00 +7°C° 0 mm 3 mps 709 mmHg 75%
    12:00 +7°C° 0 mm 3 mps 709 mmHg 71%
    13:00 +8°C° 0 mm 3 mps 709 mmHg 68%
    14:00 +8°C° 0 mm 3 mps 708 mmHg 66%
    15:00 +8°C° 0 mm 2 mps 708 mmHg 64%
    16:00 +7°C° 0 mm 2 mps 707 mmHg 69%
    17:00 +5°C° 0 mm 2 mps 707 mmHg 74%
    18:00 +5°C° 0 mm 1 mps 707 mmHg 80%
    19:00 +4°C° 0 mm 2 mps 706 mmHg 79%
    20:00 +4°C° 0 mm 2 mps 706 mmHg 79%
    21:00 +2°C° 0 mm 3 mps 706 mmHg 78%
    22:00 +2°C° 0 mm 3 mps 705 mmHg 78%
    23:00 +2°C° 0 mm 3 mps 705 mmHg 78%

    23 January, Wednesday

    Time Temperature Precipitation Wind Pressure Humidity
    00:00 +2°C° 0 mm 3 mps 704 mmHg 77%
    01:00 +2°C° 0 mm 3 mps 703 mmHg 78%
    02:00 +3°C° 0 mm 4 mps 702 mmHg 78%
    03:00 +3°C° 0 mm 4 mps 702 mmHg 79%
    04:00 +3°C° 0.1 mm 4 mps 701 mmHg 79%
    05:00 +3°C° 0.1 mm 4 mps 701 mmHg 79%
    06:00 +3°C° 0.1 mm 4 mps 700 mmHg 79%
    07:00 +3°C° 0.1 mm 5 mps 700 mmHg 77%
    08:00 +4°C° 0.1 mm 6 mps 700 mmHg 74%
    09:00 +5°C° 0.1 mm 6 mps 700 mmHg 72%
    10:00 +5°C° 0.3 mm 7 mps 700 mmHg 70%
    11:00 +5°C° 0.3 mm 8 mps 699 mmHg 69%
    12:00 +6°C° 0.3 mm 9 mps 699 mmHg 68%
    13:00 +6°C° 0 mm 9 mps 698 mmHg 65%
    14:00 +6°C° 0 mm 8 mps 698 mmHg 62%
    15:00 +7°C° 0 mm 8 mps 697 mmHg 59%
    16:00 +6°C° 0 mm 7 mps 697 mmHg 63%
    17:00 +5°C° 0 mm 7 mps 696 mmHg 66%
    18:00 +4°C° 0 mm 6 mps 696 mmHg 70%
    19:00 +4°C° 0 mm 7 mps 695 mmHg 71%
    20:00 +4°C° 0 mm 7 mps 695 mmHg 73%
    21:00 +4°C° 0 mm 8 mps 694 mmHg 75%
    22:00 +4°C° 0.1 mm 8 mps 693 mmHg 76%
    23:00 +4°C° 0.1 mm 8 mps 693 mmHg 76%

    24 January, Thursday

    Time Temperature Precipitation Wind Pressure Humidity
    00:00 +4°C° 0.1 mm 8 mps 692 mmHg 77%
    01:00 +4°C° 1.5 mm 7 mps 692 mmHg 81%
    02:00 +4°C° 1.5 mm 6 mps 692 mmHg 86%
    03:00 +5°C° 1.5 mm 5 mps 691 mmHg 90%
    04:00 +5°C° 2.4 mm 5 mps 691 mmHg 92%
    05:00 +3°C° 2.4 mm 5 mps 692 mmHg 93%
    06:00 +2°C° 2.4 mm 5 mps 692 mmHg 94%
    07:00 +2°C° 1.3 mm 5 mps 692 mmHg 91%
    08:00 +1°C° 1.3 mm 6 mps 693 mmHg 88%
    09:00 +1°C° 1.3 mm 6 mps 694 mmHg 85%
    10:00 +1°C° 0.7 mm 6 mps 694 mmHg 84%
    11:00 0°C° 0.7 mm 7 mps 694 mmHg 82%
    12:00 0°C° 0.7 mm 8 mps 694 mmHg 80%
    13:00 -1°C° 0.3 mm 8 mps 694 mmHg 79%
    14:00 -1°C° 0.3 mm 8 mps 694 mmHg 77%
    15:00 -1°C° 0.3 mm 8 mps 694 mmHg 75%
    16:00 -2°C° 0 mm 6 mps 695 mmHg 77%
    17:00 -2°C° 0 mm 5 mps 695 mmHg 80%
    18:00 -1°C° 0 mm 3 mps 695 mmHg 82%
    19:00 -2°C° 0 mm 4 mps 695 mmHg 82%
    20:00 -2°C° 0 mm 4 mps 696 mmHg 81%
    21:00 -2°C° 0 mm 4 mps 696 mmHg 81%
    22:00 -2°C° 0 mm 4 mps 696 mmHg 81%
    23:00 -3°C° 0 mm 4 mps 696 mmHg 82%
    Show more